FW9150 Weather Reports


Display with metric or nautical units.
time (UTC)temp
F
wind
direction
speed
MPH
gust
MPH
rain 1hr
in
rain 24hr
in
rain mn
in
humidity
%
barometer
mb
20260831222615 71 174 1.0 3.0 0.00 0.00 0.00 38 1020.3
20260831221616 71 310 1.0 4.0 0.00 0.00 0.00 40 1020.2
20260831220616 72 215 3.0 4.0 0.00 0.00 0.00 39 1020.3
20260831215616 72 223 3.0 6.0 0.00 0.00 0.00 39 1020.3
20260831214616 72 191 3.0 7.0 0.00 0.00 0.00 38 1020.4
20260831213715 72 219 3.0 4.0 0.00 0.00 0.00 37 1020.4
20260831212814 73 173 0.0 1.0 0.00 0.00 0.00 38 1020.5
20260831211816 73 169 4.0 7.0 0.00 0.00 0.00 37 1020.3
20260831210815 73 228 2.0 5.0 0.00 0.00 0.00 37 1020.5
20260831205816 74 184 5.0 7.0 0.00 0.00 0.00 36 1020.6
20260831204915 74 192 4.0 6.0 0.00 0.00 0.00 35 1020.5
20260831203914 74 193 2.0 3.0 0.00 0.00 0.00 34 1020.7
20260831202916 73 29 0.0 1.0 0.00 0.00 0.00 33 1020.7
20260831201015 74 229 2.0 6.0 0.00 0.00 0.00 32 1020.8
20260831200015 73 174 2.0 3.0 0.00 0.00 0.00 30 1020.7
20260831195015 73 146 5.0 7.0 0.00 0.00 0.00 30 1020.9
20260831194016 73 199 4.0 6.0 0.00 0.00 0.00 28 1020.9
20260831193113 73 214 1.0 3.0 0.00 0.00 0.00 28 1020.9
20260831192116 74 192 3.0 4.0 0.00 0.00 0.00 29 1021.1
20260831190314 73 217 5.0 6.0 0.00 0.00 0.00 28 1021.3
20260831185315 73 202 3.0 5.0 0.00 0.00 0.00 28 1021.1
20260831184314 73 243 4.0 6.0 0.00 0.00 0.00 28 1021.2
20260831183413 73 220 2.0 4.0 0.00 0.00 0.00 27 1021.2
20260831182415 73 238 1.0 3.0 0.00 0.00 0.00 27 1021.1
20260831181413 73 227 4.0 7.0 0.00 0.00 0.00 28 1021.3
20260831180416 71 225 0.0 2.0 0.00 0.00 0.00 28 1021.2
20260831175415 70 159 1.0 3.0 0.00 0.00 0.00 30 1021.1
20260831173614 69 189 2.0 4.0 0.00 0.00 0.00 32 1021.2
20260831172616 69 171 2.0 4.0 0.00 0.00 0.00 34 1021.1
20260831171615 69 141 1.0 3.0 0.00 0.00 0.00 35 1021.0
20260831170615 69 210 1.0 2.0 0.00 0.00 0.00 33 1021.0
20260831165614 70 158 2.0 4.0 0.00 0.00 0.00 33 1020.9
20260831164615 71 199 2.0 3.0 0.00 0.00 0.00 34 1020.8
20260831163715 71 112 0.0 2.0 0.00 0.00 0.00 39 1020.8
20260831162813 70 135 1.0 1.0 0.00 0.00 0.00 40 1020.9
20260831161815 69 225 0.0 0.0 0.00 0.00 0.00 41 1020.9
20260831160815 68 157 0.0 1.0 0.00 0.00 0.00 45 1021.0
20260831155813 65 209 0.0 2.0 0.00 0.00 0.00 47 1021.1
20260831154817 63 225 0.0 2.0 0.00 0.00 0.00 51 1021.3
20260831153814 60 157 0.0 0.0 0.00 0.00 0.00 54 1021.2
20260831151815 57 157 0.0 0.0 0.00 0.00 0.00 59 1021.2
20260831150815 56 157 0.0 0.0 0.00 0.00 0.00 60 1021.2
20260831145814 56 157 0.0 0.0 0.00 0.00 0.00 60 1021.2
20260831144814 55 157 0.0 0.0 0.00 0.00 0.00 60 1021.1
20260831143815 55 157 0.0 0.0 0.00 0.00 0.00 61 1020.9
20260831142914 55 157 0.0 0.0 0.00 0.00 0.00 59 1020.9
20260831141914 54 157 0.0 0.0 0.00 0.00 0.00 57 1020.9
20260831140917 54 157 0.0 0.0 0.00 0.00 0.00 57 1020.9
20260831140015 55 157 0.0 0.0 0.00 0.00 0.00 55 1020.8
20260831134015 54 157 0.0 0.0 0.00 0.00 0.00 54 1020.7
20260831133033 54 157 0.0 0.0 0.00 0.00 0.00 55 1020.6
20260831132113 54 157 0.0 0.0 0.00 0.00 0.00 54 1020.6
20260831130214 55 157 0.0 0.0 0.00 0.00 0.00 53 1020.5
20260831125214 55 157 0.0 0.0 0.00 0.00 0.00 54 1020.4
20260831124215 55 157 0.0 0.0 0.00 0.00 0.00 53 1020.3
20260831122316 55 157 0.0 0.0 0.00 0.00 0.00 52 1020.5
20260831121317 55 157 0.0 0.0 0.00 0.00 0.00 52 1020.6
20260831120414 55 157 0.0 0.0 0.00 0.00 0.00 52 1020.6
20260831113513 55 157 0.0 0.0 0.00 0.00 0.00 52 1020.7
20260831112516 55 157 0.0 0.0 0.00 0.00 0.00 53 1020.7
20260831111614 55 157 0.0 0.0 0.00 0.00 0.00 52 1020.7
20260831110616 56 157 0.0 0.0 0.00 0.00 0.00 52 1020.7
20260831105614 57 157 0.0 0.0 0.00 0.00 0.00 51 1020.6
20260831104616 56 157 0.0 0.0 0.00 0.00 0.00 51 1020.7
20260831103615 55 157 0.0 0.0 0.00 0.00 0.00 52 1020.7
20260831102615 55 157 0.0 0.0 0.00 0.00 0.00 54 1020.5
20260831100714 55 157 0.0 0.0 0.00 0.00 0.00 55 1020.9
20260831095715 55 157 0.0 0.0 0.00 0.00 0.00 55 1020.7
20260831094715 54 157 0.0 0.0 0.00 0.00 0.00 56 1020.7
20260831093714 54 157 0.0 0.0 0.00 0.00 0.00 57 1020.6
20260831092714 55 157 0.0 0.0 0.00 0.00 0.00 57 1020.8
20260831091814 55 157 0.0 0.0 0.00 0.00 0.00 56 1020.8
20260831090813 55 157 0.0 0.0 0.00 0.00 0.00 55 1020.8
20260831085814 55 157 0.0 0.0 0.00 0.00 0.00 56 1020.9
20260831084814 55 157 0.0 0.0 0.00 0.00 0.00 57 1020.9
20260831083912 55 157 0.0 0.0 0.00 0.00 0.00 58 1021.0
20260831082917 55 157 0.0 0.0 0.00 0.00 0.00 57 1021.0
20260831081917 56 157 0.0 0.0 0.00 0.00 0.00 58 1021.1
20260831081014 55 157 0.0 0.0 0.00 0.00 0.00 57 1021.3
20260831080016 55 157 0.0 0.0 0.00 0.00 0.00 58 1021.3
20260831075114 55 157 0.0 0.0 0.00 0.00 0.00 60 1021.2
20260831074115 55 157 0.0 0.0 0.00 0.00 0.00 61 1021.2
20260831073115 55 157 0.0 0.0 0.00 0.00 0.00 61 1021.2
20260831072115 55 157 0.0 0.0 0.00 0.00 0.00 61 1021.2
20260831070216 56 157 0.0 0.0 0.00 0.00 0.00 62 1021.2
20260831065306 55 157 0.0 0.0 0.00 0.00 0.00 63 1021.2
20260831064305 55 157 0.0 0.0 0.00 0.00 0.00 62 1021.4
20260831063304 56 157 0.0 0.0 0.00 0.00 0.00 62 1021.4
20260831062306 56 157 0.0 0.0 0.00 0.00 0.00 62 1021.3
20260831061318 56 157 0.0 0.0 0.00 0.00 0.00 62 1021.4
20260831060404 55 157 0.0 0.0 0.00 0.00 0.00 63 1021.4
20260831055405 56 157 0.0 0.0 0.00 0.00 0.00 62 1021.5
20260831054405 56 157 0.0 0.0 0.00 0.00 0.00 61 1021.5
20260831052603 56 157 0.0 0.0 0.00 0.00 0.00 62 1021.6
20260831050702 56 157 0.0 0.0 0.00 0.00 0.00 61 1021.6
20260831044802 57 157 0.0 0.0 0.00 0.00 0.00 59 1021.8
20260831042918 57 157 0.0 0.0 0.00 0.00 0.00 59 1021.6
20260831041904 58 157 0.0 0.0 0.00 0.00 0.00 58 1021.7
20260831040905 58 157 0.0 0.0 0.00 0.00 0.00 57 1021.5
20260831035906 59 157 0.0 0.0 0.00 0.00 0.00 57 1021.4
20260831035004 59 157 0.0 0.0 0.00 0.00 0.00 57 1021.4
20260831033103 60 157 0.0 0.0 0.00 0.00 0.00 54 1021.4
20260831032104 61 157 0.0 0.0 0.00 0.00 0.00 54 1021.4
20260831031105 61 157 0.0 0.0 0.00 0.00 0.00 54 1021.4
20260831030118 62 157 0.0 0.0 0.00 0.00 0.00 52 1021.3
20260831030003 62 157 0.0 0.0 0.00 0.00 0.00 52 1021.2
20260831025004 63 157 0.0 0.0 0.00 0.00 0.00 51 1021.2
20260831024005 63 157 0.0 0.0 0.00 0.00 0.00 49 1021.3
20260831023005 64 157 0.0 0.0 0.00 0.00 0.00 49 1021.2
20260831022021 65 157 0.0 0.0 0.00 0.00 0.00 48 1021.2
20260831020104 66 157 0.0 0.0 0.00 0.00 0.00 46 1021.1
20260831015202 67 157 0.0 0.0 0.00 0.00 0.00 44 1021.3
20260831014204 68 157 0.0 0.0 0.00 0.00 0.00 44 1021.2
20260831013205 68 157 0.0 0.0 0.00 0.00 0.00 43 1021.2
20260831011303 69 157 0.0 2.0 0.00 0.00 0.00 40 1021.2
20260831010304 70 157 0.0 0.0 0.00 0.00 0.00 39 1021.1
20260831005306 70 135 2.0 3.0 0.00 0.00 0.00 39 1021.2
20260831004402 70 202 0.0 0.0 0.00 0.00 0.00 38 1021.2
20260831003403 71 225 2.0 4.0 0.00 0.00 0.00 37 1021.1
20260831002407 72 163 1.0 4.0 0.00 0.00 0.00 37 1021.1
20260831001503 72 225 0.0 1.0 0.00 0.00 0.00 37 1021.1
20260831000504 72 202 0.0 0.0 0.00 0.00 0.00 36 1021.1
20260830234505 72 157 0.0 0.0 0.00 0.00 0.00 36 1021.1
20260830233506 73 247 2.0 3.0 0.00 0.00 0.00 34 1021.1
20260830231605 74 157 1.0 3.0 0.00 0.00 0.00 35 1021.2
20260830230703 74 135 0.0 1.0 0.00 0.00 0.00 35 1021.3
20260830225802 74 174 1.0 1.0 0.00 0.00 0.00 35 1021.3
20260830224805 74 205 1.0 3.0 0.00 0.00 0.00 35 1021.3
20260830223806 74 176 0.0 3.0 0.00 0.00 0.00 36 1021.2
20260830222804 74 173 0.0 3.0 0.00 0.00 0.00 35 1021.4